Louisville Bowman, KY

5:15 AM EDT on June 26, 2017 (GMT -0400)
Bowman

Weather History for KLOU - January, 2014

Change the Weather History Date:

Sunday, January 19, 2014

  Actual Average Record
Temperature  
Mean Temperature 32 °F 34 °F  
Max Temperature 37 °F 42 °F 68 °F (1951)
Min Temperature 26 °F 26 °F -3 °F (1984)
Degree Days  
Heating Degree Days 33 31  
Month to date heating degree days 648 583  
Since 1 July heating degree days 2396 2247  
Cooling Degree Days 0 0  
Month to date cooling degree days 0 0  
Year to date cooling degree days 0 0  
Moisture  
Dew Point 24 °F    
Average Humidity 71    
Maximum Humidity 89    
Minimum Humidity 52    
Precipitation  
Precipitation 0.00 in 0.10 in 3.00 in (1988)
Month to date precipitation 2.05 2.24  
Year to date precipitation 2.05 2.24  
Sea Level Pressure  
Sea Level Pressure 29.94 in    
Wind  
Wind Speed 11 mph (WSW)    
Max Wind Speed 20 mph    
Max Gust Speed 24 mph    
Visibility 10 miles    
Events      
T = Trace of Precipitation, MM = Missing Value Source: NWS Daily Summary

Daily Weather History Graph

Daily Weather History Graph

Search for Another Location

Airport or City:

Trip Planner

Search our weather history database for the weather conditions in past years. The results will help you decide how hot, cold, wet, or windy it might be!

Date:

Astronomy

Jan. 19, 2014 Rise Set
Actual Time 7:56 AM EST 5:50 PM EST
Civil Twilight 7:27 AM EST 6:19 PM EST
Nautical Twilight 6:55 AM EST 6:51 PM EST
Astronomical Twilight 6:23 AM EST 7:23 PM EST
Moon 9:24 PM EST (1/19) 9:29 AM EST (1/19)
Length of Visible Light 10h 51m
Length of Day
9h 54m
Waning Gibbous, 89% of the Moon is Illuminated
Jan 19
Waning Gibbous
Jan 24
Last Quarter
Jan 30
New
Feb 6
First Quarter
Feb 14
Full

Hourly Weather History & Observations

Time (EST) Temp. Windchill Dew Point Humidity Pressure Visibility Wind Dir Wind Speed Gust Speed Precip Events Conditions
12:53 AM 36.0 °F 29.0 °F 26.1 °F 67% 29.81 in 10.0 mi WSW 9.2 mph - N/A   Overcast
1:19 AM 37.4 °F 31.4 °F 28.4 °F 70% 29.79 in 10.0 mi SW 8.1 mph - N/A   Overcast
1:53 AM 36.0 °F 28.5 °F 30.9 °F 82% 29.81 in 10.0 mi WSW 10.4 mph - N/A   Overcast
2:18 AM 35.6 °F 29.2 °F 32.0 °F 87% 29.81 in 10.0 mi WSW 8.1 mph - N/A   Overcast
2:51 AM 35.6 °F 29.9 °F 32.0 °F 87% 29.82 in 10.0 mi WSW 6.9 mph - N/A   Overcast
2:53 AM 36.0 °F 31.1 °F 32.0 °F 86% 29.84 in 10.0 mi West 5.8 mph - N/A   Overcast
3:53 AM 37.0 °F 28.9 °F 30.9 °F 79% 29.87 in 10.0 mi West 12.7 mph - N/A   Overcast
4:53 AM 35.1 °F 25.2 °F 30.0 °F 82% 29.89 in 10.0 mi WNW 16.1 mph 21.9 mph N/A   Overcast
5:10 AM 33.8 °F 25.3 °F 28.4 °F 81% 29.89 in 10.0 mi WNW 11.5 mph - N/A   Overcast
5:53 AM 32.0 °F 22.1 °F 26.1 °F 79% 29.93 in 10.0 mi WNW 13.8 mph 24.2 mph N/A   Overcast
6:53 AM 30.0 °F 19.5 °F 21.9 °F 72% 29.97 in 10.0 mi NW 13.8 mph - N/A   Overcast
7:53 AM 28.0 °F 18.1 °F 19.9 °F 72% 30.02 in 10.0 mi NW 11.5 mph - N/A   Overcast
8:53 AM 27.0 °F 16.7 °F 19.0 °F 72% 30.05 in 10.0 mi WNW 11.5 mph - N/A   Overcast
9:53 AM 26.1 °F 19.4 °F 19.0 °F 75% 30.07 in 10.0 mi West 5.8 mph - N/A   Mostly Cloudy
10:46 AM 26.6 °F 16.8 °F 19.4 °F 74% 30.06 in 10.0 mi WSW 10.4 mph - N/A   Scattered Clouds
10:53 AM 27.0 °F 17.3 °F 19.0 °F 72% 30.08 in 10.0 mi WSW 10.4 mph - N/A   Partly Cloudy
11:32 AM 28.4 °F 19.1 °F 19.4 °F 69% 30.07 in 10.0 mi SW 10.4 mph - N/A   Mostly Cloudy
11:53 AM 28.0 °F 18.1 °F 21.0 °F 75% 30.09 in 10.0 mi WSW 11.5 mph 17.3 mph N/A   Mostly Cloudy
12:07 PM 28.4 °F 19.1 °F 19.4 °F 69% 30.06 in 10.0 mi WSW 10.4 mph - N/A   Scattered Clouds
12:53 PM 30.9 °F 21.7 °F 21.9 °F 69% 30.04 in 10.0 mi SSW 11.5 mph 19.6 mph N/A   Clear
1:53 PM 33.1 °F 23.0 °F 21.9 °F 64% 30.01 in 10.0 mi SW 15.0 mph 20.7 mph N/A   Clear
2:53 PM 35.1 °F 25.9 °F 21.9 °F 59% 30.00 in 10.0 mi SW 13.8 mph 19.6 mph N/A   Clear
3:53 PM 37.0 °F 28.5 °F 21.9 °F 54% 29.97 in 10.0 mi SW 13.8 mph 19.6 mph N/A   Clear
4:53 PM 37.9 °F 30.9 °F 21.9 °F 53% 29.96 in 10.0 mi SW 10.4 mph 19.6 mph N/A   Clear
5:53 PM 37.0 °F 31.0 °F 23.0 °F 57% 29.94 in 10.0 mi SSW 8.1 mph - N/A   Clear
6:53 PM 37.0 °F 31.0 °F 23.0 °F 57% 29.92 in 10.0 mi SSW 8.1 mph - N/A   Clear
7:53 PM 37.0 °F 31.0 °F 24.1 °F 59% 29.89 in 10.0 mi South 8.1 mph - N/A   Clear
8:53 PM 39.0 °F 31.8 °F 24.1 °F 55% 29.87 in 10.0 mi SSW 11.5 mph - N/A   Clear
9:53 PM 39.9 °F 31.4 °F 23.0 °F 51% 29.84 in 10.0 mi SW 16.1 mph 23.0 mph N/A   Clear
10:53 PM 39.0 °F 31.8 °F 23.0 °F 53% 29.87 in 10.0 mi SW 11.5 mph 19.6 mph N/A   Clear
11:53 PM 39.0 °F 31.8 °F 21.9 °F 50% 29.86 in 10.0 mi SW 11.5 mph - N/A   Clear